STARLINK-36184

Last updated on Fri Dec 19 2025 00:02:09 GMT+0000 (Coordinated Universal Time)

1 67021U 25293U 25351.83335648 -.01126646 40296-3 -24002-2 0 9995 2 67021 69.9930 308.9981 0004117 268.1462 142.0312 15.98480747 2383
UTC large
Height (km)
Speed (km/s)
/
Latitude / Longitude
Inclination (degrees)
Orbital Period (minutes)
Azimuth
Elevation
Range (km)
Doppler Factor

Next 0 passes for location: London (51.5072 / 0.1276)

Sorry there are no passes over London.